Simultaneous Nadir Overpasses (SNOs) Predictions

Prediction of SNOs between GOES-17 and NOAA-19 Satellite Orbit:

Table of predicted SNOs for the next 14.0 days since TLE Epoch: 9/10/2022
Index Date Time (GOES-17) GOES-17 Lat,Lon NOAA-19 Lat,Lon Distance(km) Time Diff (sec)
1 09/10/2022 04:56:06 0.03,-137.31 0.83,-133.95 384.29 80
2 09/12/2022 17:13:57 -0.04,-137.32 0.31,-138.80 169.56 80
3 09/13/2022 17:04:45 -0.03,-137.32 -0.35,-135.91 161.15 80
4 09/14/2022 16:52:52 -0.03,-137.32 -1.01,-133.01 491.70 80
5 09/16/2022 05:22:36 0.04,-137.31 -0.76,-140.77 394.72 80
6 09/17/2022 05:10:43 0.03,-137.31 -0.08,-137.88 64.60 80
7 09/18/2022 05:01:31 0.03,-137.30 0.59,-134.98 265.38 80
8 09/20/2022 17:19:21 -0.04,-137.28 0.58,-139.84 292.08 80
9 09/21/2022 17:10:09 -0.03,-137.27 -0.09,-136.94 37.48 80
10 09/22/2022 16:58:16 -0.03,-137.26 -0.76,-134.05 366.79 80
